Rochelle, IL

5:29 AM CST on November 20, 2019 (GMT -0600)
Rochelle

Weather History for KRPJ - September, 2019

Change the Weather History Date:

Saturday, September 21, 2019

  Actual Average (WUND) Record (WUND)
Temperature  
Mean Temperature 72 °F -  
Max Temperature 75 °F - - (-1)
Min Temperature 68 °F - - (-1)
Cooling Degree Days 6    
Growing Degree Days 22 (Base 50)    
Moisture  
Dew Point 70 °F    
Average Humidity 98    
Maximum Humidity 100    
Minimum Humidity 90    
Precipitation  
Precipitation 1.06 in - - ()
Sea Level Pressure  
Sea Level Pressure 30.05 in    
Wind  
Wind Speed 8 mph ()    
Max Wind Speed 20 mph    
Max Gust Speed 23 mph    
Visibility 7.7 miles    
Events Rain , Thunderstorm    
Averages and records for this station are not official NWS values.
T = Trace of Precipitation, MM = Missing Value Source: Averaged Metar Reports

Daily Weather History Graph

Daily Weather History Graph

Search for Another Location

Airport or City:

Astronomy

Sep. 21, 2019 Rise Set
Actual Time 6:42 AM CDT 6:55 PM CDT
Civil Twilight 6:14 AM CDT 7:23 PM CDT
Nautical Twilight 5:41 AM CDT 7:56 PM CDT
Astronomical Twilight 5:08 AM CDT 8:29 PM CDT
Moon 11:27 PM CDT (9/21) 1:54 PM CDT (9/21)
Length of Visible Light 13h 08m
Length of Day
12h 13m
Waning Gibbous, 54% of the Moon is Illuminated
Sep 21
Waning Gibbous
Sep 21
Last Quarter
Sep 28
New
Oct 5
First Quarter
Oct 13
Full

Hourly Weather History & Observations

Time (CDT) Temp. Dew Point Humidity Pressure Visibility Wind Dir Wind Speed Gust Speed Precip Events Conditions
12:15 AM 69.3 °F 68.0 °F 96% 30.09 in 10.0 mi SE 4.6 mph - N/A   Clear
12:35 AM 68.9 °F 67.6 °F 96% 30.08 in 10.0 mi SE 4.6 mph - N/A   Clear
12:55 AM 68.9 °F 68.0 °F 97% 30.08 in 10.0 mi SE 4.6 mph - N/A   Clear
1:15 AM 69.1 °F 68.2 °F 97% 30.08 in 10.0 mi SE 6.9 mph - N/A   Clear
1:35 AM 69.4 °F 68.4 °F 96% 30.08 in 10.0 mi SSE 6.9 mph - N/A   Clear
1:55 AM 69.4 °F 68.5 °F 97% 30.09 in 10.0 mi SSE 6.9 mph - N/A   Clear
2:15 AM 69.1 °F 68.5 °F 98% 30.09 in 7.0 mi SSE 5.8 mph - N/A   Clear
2:35 AM 69.3 °F 68.5 °F 98% 30.08 in 7.0 mi SSE 6.9 mph - N/A   Clear
2:55 AM 69.1 °F 68.5 °F 98% 30.08 in 7.0 mi SSE 5.8 mph - N/A   Clear
3:15 AM 68.5 °F 68.2 °F 99% 30.07 in 7.0 mi SSE 4.6 mph - N/A   Clear
4:15 AM 68.0 °F 68.0 °F 100% 30.08 in 7.0 mi South 3.5 mph - N/A   Scattered Clouds
4:35 AM 69.1 °F 69.1 °F 100% 30.08 in 7.0 mi SSE 5.8 mph - N/A   Mostly Cloudy
4:55 AM 69.4 °F 69.3 °F 99% 30.09 in 7.0 mi South 5.8 mph - N/A   Scattered Clouds
5:15 AM 69.8 °F 69.3 °F 98% 30.09 in 7.0 mi South 4.6 mph - N/A   Mostly Cloudy
5:35 AM 69.8 °F 69.4 °F 99% 30.09 in 7.0 mi South 5.8 mph - N/A   Overcast
5:55 AM 69.8 °F 69.4 °F 99% 30.09 in 7.0 mi SSE 5.8 mph - N/A   Mostly Cloudy
6:15 AM 69.4 °F 69.3 °F 99% 30.09 in 7.0 mi SSE 6.9 mph - N/A   Scattered Clouds
6:35 AM 69.8 °F 69.4 °F 99% 30.09 in 10.0 mi South 5.8 mph - N/A   Scattered Clouds
6:55 AM 70.0 °F 69.4 °F 98% 30.09 in 7.0 mi South 8.1 mph - N/A   Mostly Cloudy
7:15 AM 69.8 °F 69.6 °F 99% 30.08 in 7.0 mi South 8.1 mph - N/A   Overcast
7:35 AM 70.0 °F 69.8 °F 99% 30.08 in 7.0 mi South 9.2 mph - N/A Rain Rain
7:55 AM 70.3 °F 69.8 °F 98% 30.08 in 10.0 mi South 11.5 mph 16.1 mph N/A   Overcast
8:35 AM 70.3 °F 69.8 °F 98% 30.09 in 5.0 mi South 11.5 mph 16.1 mph N/A   Light Drizzle
8:55 AM 70.7 °F 69.8 °F 97% 30.08 in 10.0 mi South 11.5 mph 16.1 mph N/A   Overcast
9:15 AM 70.7 °F 69.8 °F 97% 30.08 in 10.0 mi South 12.7 mph 18.4 mph N/A   Overcast
9:35 AM 71.6 °F 70.2 °F 95% 30.08 in 10.0 mi South 15.0 mph - N/A   Overcast
9:55 AM 71.8 °F 70.2 °F 95% 30.08 in 5.0 mi South 12.7 mph 19.6 mph 0.01 in Rain Heavy Rain
10:15 AM 70.9 °F 70.2 °F 98% 30.07 in 10.0 mi South 9.2 mph - N/A   Overcast
10:35 AM 70.7 °F 69.8 °F 97% 30.07 in 10.0 mi South 10.4 mph 17.3 mph N/A Rain Light Rain
10:55 AM 71.1 °F 70.0 °F 96% 30.07 in 7.0 mi South 15.0 mph 20.7 mph 0.01 in Rain , Thunderstorm Rain
11:15 AM 70.9 °F 70.2 °F 98% 30.07 in 2.5 mi South 19.6 mph 23.0 mph 0.10 in   Overcast
11:35 AM 70.3 °F 70.3 °F 100% 30.07 in 7.0 mi SSW 11.5 mph 20.7 mph 0.24 in Thunderstorm Thunderstorm
11:55 AM 70.7 °F 70.7 °F 100% 30.07 in 10.0 mi South 10.4 mph 16.1 mph 0.24 in Thunderstorm Overcast
12:15 PM 71.2 °F 70.9 °F 99% 30.07 in 3.0 mi South 11.5 mph - 0.07 in   Overcast
12:35 PM 71.1 °F 71.1 °F 100% 30.06 in 5.0 mi South 9.2 mph - 0.18 in Rain , Thunderstorm Light Thunderstorms and Rain
12:55 PM 72.5 °F 71.6 °F 97% 30.06 in 10.0 mi South 8.1 mph - 0.18 in   Overcast
1:15 PM 72.9 °F 71.8 °F 96% 30.06 in 10.0 mi South 8.1 mph - N/A   Overcast
1:35 PM 72.9 °F 71.2 °F 95% 30.05 in 10.0 mi South 8.1 mph - N/A Thunderstorm Thunderstorm
1:55 PM 72.5 °F 71.8 °F 98% 30.05 in 7.0 mi South 9.2 mph - 0.01 in   Overcast
2:15 PM 72.0 °F 71.8 °F 99% 30.04 in 7.0 mi South 9.2 mph - N/A   Overcast
2:35 PM 73.0 °F 72.0 °F 96% 30.03 in 10.0 mi South 10.4 mph 18.4 mph N/A   Overcast
2:55 PM 73.4 °F 72.0 °F 95% 30.02 in 10.0 mi South 12.7 mph 17.3 mph N/A   Overcast
3:15 PM 73.4 °F 71.6 °F 94% 30.02 in 10.0 mi South 11.5 mph 17.3 mph N/A   Overcast
3:35 PM 75.4 °F 72.5 °F 91% 30.01 in 10.0 mi South 13.8 mph - N/A   Overcast
3:55 PM 75.7 °F 72.5 °F 90% 30.01 in 10.0 mi South 11.5 mph 17.3 mph N/A   Overcast
4:15 PM 74.5 °F 71.8 °F 91% 30.01 in 10.0 mi South 10.4 mph 16.1 mph N/A   Mostly Cloudy
4:35 PM 73.9 °F 71.6 °F 92% 30.01 in 10.0 mi South 8.1 mph - N/A   Scattered Clouds
4:55 PM 72.9 °F 72.0 °F 97% 30.01 in 5.0 mi South 8.1 mph - 0.01 in Rain Rain
5:15 PM 72.5 °F 72.1 °F 99% 30.01 in 7.0 mi South 8.1 mph - N/A Rain Light Rain
5:35 PM 72.5 °F 72.1 °F 99% 30.01 in 7.0 mi South 6.9 mph - N/A Rain Light Rain
5:55 PM 72.5 °F 72.1 °F 99% 30.01 in 5.0 mi South 8.1 mph - 0.01 in Rain , Thunderstorm Light Thunderstorms and Rain
6:15 PM 72.0 °F 72.0 °F 100% 30.03 in 1.0 mi SSW 15.0 mph 21.9 mph 0.22 in Rain , Thunderstorm Heavy Thunderstorms and Rain
6:35 PM 71.6 °F 71.6 °F 100% 30.02 in 4.0 mi South 12.7 mph 18.4 mph 0.47 in Rain Heavy Rain
6:55 PM 71.2 °F 71.2 °F 100% 30.01 in 5.0 mi SSW 16.1 mph 21.9 mph 0.51 in Rain Rain
7:15 PM 70.9 °F 70.9 °F 100% 30.01 in 10.0 mi South 10.4 mph - 0.01 in Rain Rain
7:35 PM 71.1 °F 71.1 °F 100% 30.01 in 5.0 mi South 13.8 mph - 0.03 in Rain Light Rain
8:00 PM 70.9 °F 70.9 °F 100% 30.02 in 10.0 mi South 11.5 mph - N/A Rain Rain
8:15 PM 71.1 °F 71.1 °F 100% 30.02 in 10.0 mi South 11.5 mph 16.1 mph N/A   Light Drizzle
8:35 PM 70.9 °F 70.9 °F 100% 30.02 in 7.0 mi South 9.2 mph 16.1 mph 0.01 in Rain Rain
8:55 PM 70.9 °F 70.9 °F 100% 30.02 in 10.0 mi South 10.4 mph - 0.01 in   Overcast
9:15 PM 70.9 °F 70.9 °F 100% 30.03 in 5.0 mi South 9.2 mph 17.3 mph 0.03 in Rain Heavy Rain
9:35 PM 71.1 °F 71.1 °F 100% 30.02 in 7.0 mi South 8.1 mph - 0.04 in Rain Light Rain
9:55 PM 71.1 °F 71.1 °F 100% 30.02 in 7.0 mi SSW 10.4 mph - 0.04 in   Overcast
10:15 PM 71.1 °F 71.1 °F 100% 30.01 in 7.0 mi South 8.1 mph - N/A   Mostly Cloudy
10:35 PM 70.9 °F 70.9 °F 100% 30.01 in 7.0 mi SSW 10.4 mph 16.1 mph N/A   Overcast
10:55 PM 70.7 °F 70.7 °F 100% 30.01 in 7.0 mi South 8.1 mph - N/A   Mostly Cloudy
11:15 PM 70.5 °F 70.5 °F 100% 30.00 in 7.0 mi South 9.2 mph - N/A   Scattered Clouds
11:35 PM 70.3 °F 70.3 °F 100% 30.00 in 7.0 mi South 9.2 mph - N/A   Clear
11:55 PM 70.3 °F 70.3 °F 100% 29.99 in 7.0 mi South 8.1 mph - N/A   Scattered Clouds